星链-5979 (STARLINK-5979 )

导读

STARLINK-5979是美国太空探索技术公司(SpaceX)于2023年4月27日发射的星链卫星,隶属于Starlink星座项目。星链计划旨在构建全球卫星互联网,为全球偏远地区、海洋空域提供低延迟高速网络服务,该卫星入轨后进一步扩充了星链星座的规模,提升了星座的覆盖能力与服务容量。

Basic Information
目录编号:
56345
目录名称:
STARLINK-5979
国际标识:
2023-058AE
轨道中心:
EARTH
卫星名称:
星链-5979
卫星全名:
星链-5979 (STARLINK-5979 )
卫星状态:
在轨 (已飞行1145 天)
发射日期:
2023-04-27 UTC
国别 :
美国 (US)
星等 :
--
Orbit Information
数据来源 国际轨道数据 AOE轨道数据
星历时间 2026-06-15T04:51:19+0800
3小时前
查看轨道信息
2026-06-08T17:00:00+0800
6天前
查看轨道信息
半长轴 6927.623km 6927.602km
偏心率 0.0002358 0.0001744
轨道倾角 97.358° 97.390°
近地点辐角 81.744° 85.012°
升交点赤经 164.946° 158.742°
平近点角 278.405° 17.780°
近地点 547.852km 548.256km
远地点 551.12km 550.674km
周期 95.639分钟 95.639分钟
每日圈数 15.056583 15.056652
Detailed Information
固有亮度:
5
最大亮度:
2.5
卫星平台:
Starlink v1.5
覆盖范围:
全球
运营商:
太空探索技术公司
运营商所在国:
美国
制造商(研发单位):
太空探索技术公司
制造商所在国:
美国
使用方式:
暂无
Satellite Introduction
星链(Starlink)计划是由太空探索技术公司(SpaceX)提出的一个巨型低轨卫星互联网星座项目,计划在2019年至2024年间在太空搭建由约1.2万颗卫星组成的“星链”网络,其中1584颗将部署在地球上空550千米处的近地轨道,并从2020年开始工作。该卫星仍在工作。
2D Orbit Map
3D Orbit Map
Orbit Altitude Analysis Chart
Orbit Inclination Analysis Chart
Orbit Comprehensive Analysis Chart
View Comprehensive Chart